Terminal Aerodrome Forecast
Issued by NWS

Home | Current Version | Previous Version | Text Only | Print | Product List | Glossary On
Versions: 1 2 3 4 5 6 7 8 9 10 11 12 13 14 15 16 17 18 19 20 21 22 23 24 25 26 27 28 29 30 31 32 33 34 35 36 37 38 39 40
000
FTUS44 KOUN 221242 AAA
TAFCSM
TAF AMD
KCSM 221242Z 2213/2312 33014KT P6SM SCT008 BKN060
     FM221500 33020G30KT P6SM FEW100
     FM222300 30007KT P6SM BKN250=

USA.gov is the U.S. government's official web portal to all federal, state and local government web resources and services.